This is the latest recevied weather packets stored in our database for station/object K7FRY. If no packets are shown the sender has not sent any weather packets the latest 10 day(s).
| Time | Temp. | Humidity | Pressure | Rain* | Wind** | Luminosity | Snow |
|---|---|---|---|---|---|---|---|
| 1777598828 | 27.22° C | 18% | 1006.6 hPa | 0 mm | - | 10 W/m² | - |
| 1777598522 | 27.78° C | 18% | 1006.8 hPa | 0 mm | - | 13 W/m² | - |
| 1777598216 | 27.78° C | 18% | 1006.7 hPa | 0 mm | - | 16 W/m² | - |
| 1777597915 | 27.78° C | 18% | 1006.7 hPa | 0 mm | - | 18 W/m² | - |
| 1777597609 | 27.78° C | 18% | 1006.6 hPa | 0 mm | - | 19 W/m² | - |
| 1777597305 | 28.33° C | 18% | 1006.5 hPa | 0 mm | - | 23 W/m² | - |
| 1777597000 | 28.33° C | 18% | 1006.2 hPa | 0 mm | - | 37 W/m² | - |
| 1777596698 | 28.33° C | 18% | 1006.3 hPa | 0 mm | - | 45 W/m² | - |
| 1777596395 | 28.33° C | 18% | 1006.3 hPa | 0 mm | - | 49 W/m² | - |
| 1777596092 | 28.89° C | 18% | 1006 hPa | 0 mm | - | 55 W/m² | - |
| 1777595787 | 28.89° C | 18% | 1006.3 hPa | 0 mm | - | 55 W/m² | - |
| 1777595482 | 28.89° C | 18% | 1006.5 hPa | 0 mm | - | 56 W/m² | - |
| 1777595180 | 28.89° C | 18% | 1006.5 hPa | 0 mm | - | 62 W/m² | - |
| 1777594875 | 28.89° C | 18% | 1006.3 hPa | 0 mm | - | 74 W/m² | - |
| 1777594572 | 29.44° C | 18% | 1006.2 hPa | 0 mm | - | 86 W/m² | - |
| 1777594268 | 29.44° C | 18% | 1006.5 hPa | 0 mm | - | 106 W/m² | - |
| 1777593964 | 29.44° C | 18% | 1006.2 hPa | 0 mm | - | 144 W/m² | - |
| 1777593661 | 29.44° C | 18% | 1006.3 hPa | 0 mm | - | 167 W/m² | - |
| 1777593356 | 29.44° C | 18% | 1006.5 hPa | 0 mm | - | 210 W/m² | - |
| 1777593055 | 30° C | 18% | 1006.5 hPa | 0 mm | - | 184 W/m² | - |
| 1777592755 | 30° C | 18% | 1006.5 hPa | 0 mm | - | 242 W/m² | - |
| 1777592451 | 29.44° C | 18% | 1006.6 hPa | 0 mm | - | 225 W/m² | - |
| 1777592146 | 29.44° C | 19% | 1006.7 hPa | 0 mm | - | 142 W/m² | - |
| 1777591844 | 29.44° C | 19% | 1006.6 hPa | 0 mm | - | 127 W/m² | - |
| 1777591539 | 29.44° C | 19% | 1006.8 hPa | 0 mm | - | 132 W/m² | - |
* Rain latest hour (hover to see other rain measurements)
** Current wind speed in m/s (hover to see current wind gust speed)